Content
SEND FEEDBACK

Daily
Averages
Monthly
Summary
United States of America

ST. LOUIS, MISSOURI


Home > North America > United States > Missouri
Elevation: 163 meters     Latitude: 38 45N     Longitude: 090 22W

WEATHER
 
SELECT A DAY
Number of Records: 200,411;   Date Range: 1/1/95 - 11/19/14
 
SHARE

PRINT THIS DATA

[ ← Previous Day ]
WEATHER ALMANAC - 25 MARCH, 2013
[ Next Day → ]
[ °F ]   °C
Weather ElementAverageHighLow
Temperature-0.1 °C2.2 °C (2:54 pm)-2 °C (7:23 am)
Dewpoint-3.2 °C-2 °C (12:20 am)-5 °C (4:41 pm)
Humidity80.1 %93 % (2:19 am)60 % (4:41 pm)
Barometer1015.2 hPa1023.7 hPa (11:54 pm)1010.8 hPa (12:20 am)
Wind Speed21.9 km/h31.5 km/h (3:54 pm)
Wind Gust46.3 km/h (3:44 pm)
Weather ElementAverage
Visibility7.7 km
Wind DirectionWNW (288.8 °)

Weather ElementTotal
Precipitation0.51 mm
Heating Degree Days18.2 (Base 18.3)
Averaged from 48 records on 25 March, 2013
WEATHER CONDITIONS BREAKOUT
WIND DIRECTION BREAKOUT
WEATHER BY HOUR - 25 MARCH, 2013
[ °F ]   °C
Local TimeTemperatureDewpointHumidityBarometerVisibilityWind DirectionWind SpeedGust SpeedPrecipitationEventsConditions
12:20 AM0 °C-2 °C87 %1010.8 hPa4 kmWNW (300°)22.2 km/h0 mmSnowLight Snow
12:27 AM0 °C-2 °C87 %1010.8 hPa4.8 kmWNW (300°)25.9 km/h37 km/h0 mmSnowLight Snow
12:54 AM0 °C-2.2 °C85 %1011.9 hPa4.8 kmWNW (290°)24.1 km/h37 km/h0 mmSnowLight Snow
1:05 AM0 °C-2 °C87 %1011.2 hPa4 kmWNW (290°)24.1 km/h0 mmSnowLight Snow
1:52 AM-1 °C-3 °C86 %1011.5 hPa4 kmWNW (290°)24.1 km/h37 km/h0 mmSnowLight Snow
1:54 AM-0.6 °C-2.2 °C89 %1012.2 hPa4 kmWNW (290°)24.1 km/h37 km/h0 mmSnowLight Snow
2:19 AM-1 °C-2 °C93 %1011.5 hPa4.8 kmWNW (290°)22.2 km/h0 mmSnowLight Snow
2:34 AM-1 °C-2 °C93 %1011.5 hPa4.8 kmWNW (290°)24.1 km/h0 mmSnowLight Snow
2:46 AM-1 °C-3 °C86 %1011.5 hPa6.4 kmWNW (290°)18.5 km/h0 mmSnowLight Snow
2:54 AM-0.6 °C-2.8 °C85 %1012.2 hPa4.8 kmWNW (290°)24.1 km/h0 mmSnowLight Snow
3:27 AM-1 °C-3 °C86 %1011.5 hPa4.8 kmWest (280°)24.1 km/h0 mmSnowLight Snow
3:46 AM-1 °C-3 °C86 %1011.5 hPa4 kmWest (280°)24.1 km/h0 mmSnowLight Snow
3:54 AM-0.6 °C-2.8 °C85 %1012.2 hPa3.2 kmWest (280°)22.2 km/h31.5 km/h0 mmSnowLight Snow
4:01 AM-1 °C-3 °C86 %1011.2 hPa2.9 kmWest (280°)22.2 km/h0 mmSnowLight Snow
4:18 AM-1 °C-3 °C86 %1011.2 hPa3.2 kmWNW (290°)25.9 km/h38.9 km/h0 mmSnowLight Snow
4:33 AM-1 °C-3 °C86 %1011.2 hPa6.4 kmWNW (290°)24.1 km/h0 mmSnowLight Snow
4:54 AM-1.1 °C-3.3 °C85 %1012.5 hPa9.7 kmWest (280°)24.1 km/h0 mmOvercast
5:54 AM-1.1 °C-3.9 °C82 %1012.9 hPa11.3 kmWest (280°)22.2 km/hOvercast
6:54 AM-1.7 °C-4.4 °C82 %1013.5 hPa11.3 kmWest (280°)24.1 km/hOvercast
7:23 AM-2 °C-4 °C86 %1013.2 hPa3.2 kmWest (280°)20.4 km/h0 mmSnowLight Snow
7:39 AM-2 °C-4 °C86 %1013.5 hPa3.2 kmWest (280°)22.2 km/h0 mmSnowLight Snow
7:49 AM-2 °C-4 °C86 %1013.5 hPa3.2 kmWest (280°)20.4 km/h0 mmSnowLight Snow
7:54 AM-1.7 °C-3.9 °C85 %1014.6 hPa3.2 kmWest (280°)20.4 km/h0 mmSnowLight Snow
8:54 AM-1.1 °C-3.9 °C82 %1015.2 hPa3.2 kmWest (280°)24.1 km/h31.5 km/h0 mmSnowLight Snow
9:01 AM-1 °C-3 °C86 %1014.6 hPa3.2 kmWest (280°)22.2 km/h0 mmSnowLight Snow
9:17 AM-1 °C-3 °C86 %1014.6 hPa3.2 kmWest (280°)18.5 km/h33.3 km/h0 mmSnowLight Snow
9:54 AM-0.6 °C-2.8 °C85 %1015.9 hPa3.2 kmWNW (290°)22.2 km/h33.3 km/h0 mmSnowLight Snow
10:54 AM0.6 °C-2.2 °C82 %1016.6 hPa3.2 kmWNW (300°)20.4 km/h0 mmSnowLight Snow
11:20 AM1 °C-2 °C81 %1015.9 hPa2.9 kmWNW (290°)22.2 km/h35.2 km/h0 mmSnowLight Snow
11:32 AM1 °C-2 °C81 %1016.3 hPa4 kmWNW (290°)18.5 km/h0 mmSnowLight Snow
11:44 AM1 °C-2 °C81 %1016.3 hPa4.8 kmWNW (290°)20.4 km/h0 mmSnowLight Snow
11:54 AM1.1 °C-2.2 °C79 %1017.3 hPa4.8 kmWNW (290°)18.5 km/h29.6 km/h0 mmSnowLight Snow
12:08 PM1 °C-2 °C81 %1016.6 hPa4 kmWNW (290°)24.1 km/h0 mmSnowLight Snow
12:54 PM1.7 °C-2.2 °C76 %1017.3 hPa8 kmWNW (290°)25.9 km/h0 mmHaze
1:54 PM1.7 °C-2.2 °C76 %1017.6 hPa6.4 kmWNW (290°)18.5 km/h0 mmSnowLight Snow
2:41 PM2 °C-2 °C75 %1016.9 hPa16.1 kmWNW (290°)25.9 km/h37 km/h0 mmOvercast
2:54 PM2.2 °C-2.2 °C73 %1017.9 hPa16.1 kmWNW (290°)20.4 km/h0 mmOvercast
3:44 PM2 °C-3 °C70 %1017.6 hPa16.1 kmWNW (300°)24.1 km/h46.3 km/h0.25 mmMostly Cloudy
3:54 PM1.7 °C-3.3 °C70 %1018.6 hPa12.9 kmWNW (300°)31.5 km/h40.7 km/h0.25 mmSnowLight Snow
4:41 PM2 °C-5 °C60 %1018.3 hPa16.1 kmNW (310°)22.2 km/h40.7 km/h0 mmOvercast
4:54 PM1.7 °C-5 °C61 %1019.6 hPa16.1 kmWNW (300°)29.6 km/h0 mmOvercast
5:54 PM1.1 °C-5 °C64 %1020.3 hPa16.1 kmNW (320°)24.1 km/hOvercast
6:54 PM0.6 °C-5 °C66 %1021.3 hPa16.1 kmWNW (290°)20.4 km/hOvercast
7:54 PM0.6 °C-4.4 °C70 %1022 hPa16.1 kmWNW (290°)16.7 km/hOvercast
8:54 PM0 °C-5 °C69 %1022.7 hPa16.1 kmWest (280°)11.1 km/hOvercast
9:54 PM0 °C-5 °C69 %1023.4 hPa16.1 kmWNW (290°)13 km/hOvercast
10:54 PM0 °C-5 °C69 %1023.4 hPa16.1 kmWest (280°)13 km/hOvercast
11:54 PM0 °C-5 °C69 %1023.7 hPa16.1 kmWest (280°)11.1 km/hOvercast
Hourly data recorded from KSUS, located 0 kilometers away from St. Louis, Missouri







STORIES FROM OUR PARTNERS